Location: Unspecified
(56.5167°N, 0.0000°E)
Time: 01:37:52
(UTC+02:00)

ISS - Visible Passes

Search period start: 23 May 2018 00:00
Search period end: 02 June 2018 00:00
Orbit: 402 x 407 km, 51.6° (Epoch: 23 May)

Date Brightness Start Highest point End Pass type
(mag) Time Alt. Az. Time Alt. Az. Time Alt. Az.
23 May -3.0 00:36:25 10° SW 00:39:20 30° SSE 00:42:16 10° ESE visible
23 May -3.2 02:12:24 10° WSW 02:15:22 32° S 02:18:21 10° ESE visible
23 May -2.3 03:49:05 10° WSW 03:51:16 17° SSW 03:53:25 10° SSE visible
23 May -2.8 23:44:32 10° SW 23:47:20 26° SSE 23:50:06 10° ESE visible
24 May -3.2 01:20:20 10° WSW 01:23:21 34° S 01:26:21 10° ESE visible
24 May -2.6 02:56:43 10° WSW 02:59:19 21° SSW 03:00:21 18° S visible
25 May -3.2 00:28:16 10° WSW 00:31:17 34° S 00:34:18 10° ESE visible
25 May -2.9 02:04:29 10° WSW 02:07:19 26° SSW 02:08:20 22° SSE visible
25 May -3.0 23:36:15 10° SW 23:39:13 32° S 23:42:11 10° ESE visible
26 May -3.0 01:12:19 10° WSW 01:15:16 31° S 01:17:17 16° SE visible
26 May -1.7 02:49:09 10° WSW 02:49:54 13° SW 02:49:54 13° SW visible
27 May -3.1 00:20:11 10° WSW 00:23:12 34° S 00:26:12 10° ESE visible
27 May -2.4 01:56:40 10° WSW 01:59:05 20° SSW 01:59:05 20° SSW visible
27 May -3.1 23:28:05 10° WSW 23:31:06 35° S 23:34:07 10° ESE visible
28 May -2.7 01:04:22 10° WSW 01:07:07 25° SSW 01:08:22 19° SSE visible
29 May -2.9 00:12:08 10° WSW 00:15:03 29° SSW 00:17:43 11° SE visible
29 May -1.7 01:49:10 10° WSW 01:50:20 13° SW 01:50:20 13° SW visible
30 May -2.2 00:56:31 10° WSW 00:58:50 18° SSW 00:59:43 16° S visible
31 May -2.4 00:04:08 10° WSW 00:06:47 23° SSW 00:09:07 12° SSE visible
01 Jun -1.6 00:49:10 10° WSW 00:50:26 12° SW 00:51:10 11° SSW visible
